sat.trackr.live / text

‹ back to catalog

STARLINK-32697

NORAD 62436 · 2024-251E

PAYLOAD ACTIVE UNKNOWN

§ Identity

Operator
Country
US
Launch date
2024-12-29
Launch site
AFWTR
Launch vehicle
Mass (kg)
RCS (m²)

Purposes: comms

External: N2YO · Heavens-Above · Gunter

§ Orbital elements

Epoch: 2026-05-24T19:28:03.933696Z

Period
94.11 min
Inclination
53.1610°
Eccentricity
0.0000703
Mean motion
15.30199399 rev/d
Perigee alt
474.7 km
Apogee alt
475.7 km
Semi-major
6,853.4 km
B*
5.5631e-4
RAAN
341.6793°
Arg perigee
81.0660°
Mean anomaly
279.0420°
Rev number
7,960

§ Raw data

STARLINK-326971 62436U 24251E   26144.81115664  .00016153  00000+0  55631-3 0  99922 62436  53.1610 341.6793 0000703  81.0660 279.0420 15.30199399 79608

JSON: /api/v1/satellites/62436 · /tle

For live sub-satellite position, see the globe view (requires WebGL).

§ Visibility from observer

Set your observer location to see the next 7 days of passes ≥ 10°. The values pass through the URL so the page stays shareable.

No JS? Fill the form by hand. The geolocation button needs JavaScript.